Regional Weather Roundup
Issued by NWS

Home | Current Version | Previous Version | Graphics & Text | Print | Product List | Glossary On
Versions: 1 2 3 4 5 6 7 8 9 10 11 12 13 14 15 16 17 18 19 20 21 22 23 24 25 26 27 28 29 30 31 32 33 34 35 36 37 38 39 40 41 42 43 44 45 46 47 48 49 50
000
ASUS43 KIND 111609
RWRIN

WEATHER ROUNDUP FOR INDIANA
NATIONAL WEATHER SERVICE INDIANAPOLIS IN
1100 AM EST MON DEC 11 2017

NOTE: "FAIR" INDICATES FEW OR NO CLOUDS BELOW 12,000 FEET WITH NO
SIGNIFICANT WEATHER AND/OR OBSTRUCTIONS TO VISIBILITY.

* - STATION DOES NOT REPORT WEATHER SUCH AS PRECIPITATION OR FOG.

+ - STATION NOT QUALITY CONTROLLED BY THE NATIONAL WEATHER SERVICE.
    USE DATA WITH CAUTION...ESPECIALLY DEWPOINT AND RELATIVE
    HUMIDITY OBSERVATIONS.

INZ001>003-010>013-019-020-111700-
NORTHWEST INDIANA

CITY           SKY/WX    TMP DP  RH WIND       PRES   REMARKS
GARY /AIRPORT/ PTSUNNY   32  21  64 S10       29.90F WCI  24
KNOX *+        CLOUDY    30  23  74 S7        29.94S WCI  23
LA PORTE +     CLOUDY    28  22  78 S6        29.92F WCI  22
MICHIGAN CITY+ CLOUDY    30  21  69 S8        29.92F WCI  23
MONTICELLO +   CLOUDY    30  22  72 S8        29.92F WCI  22
RENSSELAER +   CLOUDY    32  23  69 SE7       29.91F WCI  26
VALPARAISO     CLOUDY    31  23  72 S10       29.90F WCI  22

$$

LMZ046-743>745-111700-
SOUTHERN LAKE MICHIGAN

STATION/POSITION TIME  TEMP    WIND        PRES    WAVE
                       AIR SEA DIR/SP/G            HT
                 (UTC) (F)     (DEG/KT/KT) (MB)    (FT)
BURNS HARBOR     1540   30     180/ 10/ 15 1013.5F
MICHIGAN CITY    1540   29     160/ 13/ 16   N/A

$$

INZ004-005-014>016-021>024-111700-
NORTH CENTRAL INDIANA

CITY           SKY/WX    TMP DP  RH WIND       PRES   REMARKS
ELKHART        CLOUDY    28  21  74 S9        29.93F WCI  20
GOSHEN         CLOUDY    29  22  75 S9        29.94F WCI  20
LOGANSPORT +   CLOUDY    32  23  69 S12       29.94F WCI  23
PERU/GRISSOM   CLOUDY    31  25  77 S12       29.92F WCI  22
ROCHESTER +    CLOUDY    32  27  80 S7        29.94F WCI  26
SOUTH BEND     CLOUDY    28  22  78 S13       29.93F WCI  17
WARSAW +       CLOUDY    30  23  74 S5        29.94F WCI  25

$$

INZ006>009-017-018-025>027-111700-
NORTHEAST INDIANA

CITY           SKY/WX    TMP DP  RH WIND       PRES   REMARKS
AUBURN +       CLOUDY    32  23  69 S7        29.96F WCI  26
FORT WAYNE     CLOUDY    30  25  81 S10       29.96F WCI  21
HUNTINGTON +   CLOUDY    30  23  75 S8        29.95F WCI  22
KENDALLVILLE + CLOUDY    29  23  78 SW12      29.94F WCI  20

$$

INZ028-029-035-036-043>045-051>053-111700-
WEST CENTRAL INDIANA

CITY           SKY/WX    TMP DP  RH WIND       PRES   REMARKS
CRAWFORDSVL +  MOSUNNY   32  24  73 S9G18     29.93  WCI  24
GREENCASTLE +  MOSUNNY   36  25  64 S8        29.95F WCI  29
LAFAYETTE      CLOUDY    31  24  75 S7        29.91F WCI  24
TERRE HAUTE    MOSUNNY   37  26  64 S13       29.96F WCI  29

$$

INZ030>032-037>040-046>048-054>057-064-065-111700-
CENTRAL INDIANA

CITY           SKY/WX    TMP DP  RH WIND       PRES   REMARKS
ANDERSON       MOSUNNY   30  25  80 S13       29.97F WCI  20
COLUMBUS       SUNNY     32  25  74 S9        30.01F WCI  24
FRANKFORT +    CLOUDY    34  26  72 S10       29.94F WCI  26
GREENWOOD *+   SUNNY     37  28  68 S9        29.99F WCI  31
INDIANAPOLIS   PTSUNNY   35  24  64 S13       29.98F WCI  26
-EAGLE CREEK   MOSUNNY   33  23  66 S10       29.96F WCI  25
KOKOMO +       MOSUNNY   31  25  78 S15       29.94F WCI  20
MARION +       MOSUNNY   30  24  78 S14G20    29.96F WCI  20
MT COMFORT *+  MOSUNNY   32  28  86 S12       29.97F WCI  23
SHELBYVILLE    SUNNY     34  25  69 S13       29.99F WCI  25
ZIONSVILLE +   CLOUDY    32  24  72 S13       29.96F WCI  22

$$

INZ033-034-041-042-049-050-058-059-111700-
EAST CENTRAL INDIANA

CITY           SKY/WX    TMP DP  RH WIND       PRES   REMARKS
MUNCIE         MOSUNNY   33  24  69 S9G22     29.96F WCI  25
RICHMOND +     CLOUDY    30  27  86 S14       29.98F WCI  20

$$

INZ060-061-067>069-081>083-085>088-111700-
SOUTHWEST INDIANA

CITY           SKY/WX    TMP DP  RH WIND       PRES   REMARKS
EVANSVILLE     CLOUDY    41  31  67 S12       30.04F
HUNTINGBURG +  CLOUDY    37  30  75 S12       30.04F WCI  29
WASHINGTON +   CLOUDY    35  27  71 S9        30.01F WCI  28

$$

INZ062-063-066-070>080-084-089>092-111700-
SOUTH CENTRAL AND SOUTHEAST INDIANA

CITY           SKY/WX    TMP DP  RH WIND       PRES   REMARKS
BEDFORD +      CLOUDY    34  27  75 S5        30.01F WCI  30
BLOOMINGTON    MOSUNNY   36  25  64 SW7       29.99F WCI  30
MADISON *+     CLOUDY    36  28  75 S8        30.03F WCI  29
NORTH VERNON + CLOUDY    34  25  69 S5        30.02F WCI  30
SEYMOUR +      CLOUDY    36  27  69 S6        30.02F WCI  31

$$





USA.gov is the U.S. government's official web portal to all federal, state and local government web resources and services.